Torna al catalogo

OPS 6431

AttivoNavigazioneLEO
NORAD 8818·PAYLOAD·🇺🇸 United States

Lanciato Apr 30, 1976 da Vandenberg Space Force Base

Loading…

Prossimi Passaggi (prossime 24 ore)

TLE

AggiornatoSource: Space-Track

Epoca: Sep 14, 2026, 05:08 UTC

1 08818U 76038A   26257.21425424 -.00000027  00000-0  39640-4 0  9991
2 08818  63.3582 188.3464 0348370 184.2013 175.6096 13.91700808119611

Traccia OPS 6431 in tempo reale con AllMySat

Download on the App Store